This demonstration page uses our WeatherBlox Daily Observations layout. Learn more.

Left ArrowRight Arrow

39.08367, -84.50855

Hourly Observations for May 3, 2017

Temp ( °F °C ) Dew Point ( °F °C ) Humidity (%) Winds ( mph kmh ) Pressure ( in mb ) Visibility ( mi km ) Precip ( " mm )
12:53 am 00:53 Clear 51 10.6 40 4.4 66 66 N N/A 30.04 1017 10 16.0934 N/A
1:53 am 01:53 Clear 48 8.9 41 5 77 77 WSW 3 6 30.04 1017 10 16.0934 N/A
2:53 am 02:53 Clear 48 8.9 41 5 77 77 W 5 7 30.04 1017 10 16.0934 N/A
3:53 am 03:53 Clear 48 8.9 39 3.9 71 71 NNW 3 6 30.07 1018 10 16.0934 N/A
4:53 am 04:53 Clear 47 8.3 38 3.3 71 71 N N/A 30.09 1019 10 16.0934 N/A
5:53 am 05:53 Clear 46 7.8 39 3.9 77 77 NW 3 6 30.11 1020 10 16.0934 N/A
6:53 am 06:53 Sunny 42 5.6 40 4.4 92 92 N N/A 30.13 1020 10 16.0934 N/A
7:53 am 07:53 Sunny 47 8.3 41 5 80 80 N N/A 30.15 1021 10 16.0934 N/A
8:53 am 08:53 Mostly Sunny 49 9.4 39 3.9 69 69 NNW 8 13 30.17 1022 10 16.0934 N/A
9:53 am 09:53 Mostly Sunny 50 10 40 4.4 68 68 ENE 6 9 30.2 1023 10 16.0934 N/A
10:53 am 10:53 Sunny 54 12.2 40 4.4 59 59 N 6 9 30.2 1023 10 16.0934 N/A
11:53 am 11:53 Sunny 55 12.8 40 4.4 57 57 N N/A 30.19 1023 10 16.0934 N/A
12:53 pm 12:53 Mostly Cloudy 57 13.9 40 4.4 53 53 VRB 3 6 30.18 1022 10 16.0934 N/A
1:53 pm 13:53 Cloudy 59 15 42 5.6 54 54 ENE 8 13 30.16 1021 10 16.0934 N/A
2:53 pm 14:53 Mostly Cloudy 60 15.6 43 6.1 53 53 NE 7 11 30.13 1020 10 16.0934 N/A
3:53 pm 15:53 Mostly Cloudy 59 15 43 6.1 56 56 NE 12 19 30.09 1019 10 16.0934 N/A
4:53 pm 16:53 Cloudy 58 14.4 42 5.6 56 56 E 8 13 30.07 1018 10 16.0934 N/A
5:53 pm 17:53 Cloudy with Light Rain 57 13.9 45 7.2 64 64 NNE 7 11 30.13 1020 10 16.0934 N/A
6:53 pm 18:53 Cloudy 55 12.8 46 7.8 72 72 N 10 17 30.15 1021 10 16.0934 N/A
7:53 pm 19:53 Cloudy 53 11.7 47 8.3 80 80 NE 10 17 30.1 1019 10 16.0934 N/A
8:53 pm 20:53 Cloudy 52 11.1 46 7.8 80 80 ENE 9 15 30.09 1019 10 16.0934 N/A
9:53 pm 21:53 Mostly Cloudy 52 11.1 47 8.3 83 83 NE 9 15 30.07 1018 10 16.0934 N/A
10:53 pm 22:53 Mostly Cloudy 53 11.7 48 8.9 83 83 NE 8 13 30.08 1019 10 16.0934 N/A
11:53 pm 23:53 Mostly Cloudy 52 11.1 46 7.8 80 80 N 6 9 30.06 1018 10 16.0934 N/A

Powered by AerisWeather